FW2589 Weather Reports


Display with metric or nautical units.
time (UTC)temp
F
wind
direction
speed
MPH
gust
MPH
rain 1hr
in
rain 24hr
in
rain mn
in
humidity
%
barometer
mb
20260504050523 66 312 4.0 6.0 0.00 0.14 0.14 67 1014.0
20260504050023 65 319 4.0 7.0 0.00 0.14 0.14 71 1014.0
20260504045523 65 325 5.0 8.0 0.00 0.14 0.14 68 1014.0
20260504045023 66 318 4.0 10.0 0.00 0.14 0.14 70 1014.0
20260504044526 65 318 3.0 9.0 0.00 0.14 0.14 75 1014.0
20260504044023 66 338 2.0 7.0 0.00 0.14 0.14 71 1014.0
20260504043523 65 345 2.0 6.0 0.00 0.14 0.14 78 1014.0
20260504043025 64 334 4.0 6.0 0.00 0.14 0.14 79 1014.0
20260504042523 65 323 5.0 10.0 0.00 0.14 0.14 75 1014.0
20260504042022 64 324 5.0 10.0 0.00 0.14 0.14 78 1014.0
20260504041523 63 320 5.0 9.0 0.00 0.14 0.14 79 1014.0
20260504041138 63 326 4.0 10.0 0.00 0.14 0.14 80 1014.0
20260504040523 62 322 5.0 8.0 0.00 0.14 0.14 84 1014.0
20260504040023 63 313 6.0 12.0 0.00 0.14 0.14 82 1014.0
20260504035637 63 318 6.0 12.0 0.00 0.14 0.14 80 1014.0
20260504035022 64 339 5.0 11.0 0.00 0.14 0.14 86 1014.0
20260504034523 64 358 4.0 11.0 0.00 0.14 0.14 84 1014.0
20260504034023 65 328 3.0 8.0 0.00 0.14 0.14 85 1014.0
20260504033523 65 311 4.0 6.0 0.00 0.14 0.14 83 1014.0
20260504033023 66 338 4.0 9.0 0.00 0.14 0.14 82 1014.0
20260504032522 65 0 4.0 6.0 0.00 0.14 0.14 84 1014.0
20260504032023 65 5 6.0 10.0 0.00 0.14 0.14 86 1014.0
20260504031523 65 334 5.0 11.0 0.00 0.14 0.14 86 1014.0
20260504031022 65 304 5.0 12.0 0.00 0.14 0.14 86 1014.0
20260504030522 65 340 4.0 12.0 0.00 0.14 0.14 87 1014.0
20260504030023 65 12 3.0 6.0 0.00 0.14 0.14 94 1014.0
20260504025523 64 15 5.0 8.0 0.00 0.14 0.14 95 1014.0
20260504025023 63 16 6.0 10.0 0.00 0.14 0.14 95 1014.0
20260504024638 62 3 6.0 10.0 0.00 0.14 0.14 96 1014.0
20260504024022 61 7 6.0 11.0 0.00 0.14 0.14 97 1014.0
20260504023523 62 20 6.0 12.0 0.00 0.14 0.14 96 1015.0
20260504023023 63 14 5.0 9.0 0.00 0.14 0.14 96 1015.0
20260504022522 62 5 5.0 9.0 0.00 0.14 0.14 97 1015.0
20260504022137 62 5 4.0 12.0 0.00 0.14 0.14 99 1015.0
20260504021523 62 350 2.0 10.0 0.00 0.14 0.14 99 1015.0
20260504021023 62 348 2.0 4.0 0.00 0.14 0.14 100 1015.0
20260504020523 61 14 2.0 7.0 0.00 0.14 0.14 100 1015.0
20260504020023 61 350 1.0 4.0 0.00 0.14 0.14 100 1015.0
20260504015522 60 304 2.0 4.0 0.00 0.14 0.14 100 1015.0
20260504015022 60 301 3.0 5.0 0.00 0.14 0.14 100 1015.0
20260504014523 60 318 4.0 5.0 0.00 0.14 0.14 100 1015.0
20260504014025 61 321 3.0 8.0 0.00 0.14 0.14 100 1015.0
20260504013522 62 326 2.0 7.0 0.00 0.14 0.14 100 1015.0
20260504013023 61 334 3.0 6.0 0.00 0.14 0.14 100 1015.0
20260504012522 61 327 5.0 8.0 0.00 0.14 0.14 100 1015.0
20260504012023 60 319 6.0 10.0 0.00 0.14 0.14 100 1015.0
20260504011523 61 338 5.0 10.0 0.00 0.14 0.14 100 1015.0
20260504011022 61 358 4.0 7.0 0.00 0.14 0.14 100 1015.0
20260504010523 61 346 4.0 10.0 0.00 0.14 0.14 100 1015.0
20260504010023 61 333 4.0 13.0 0.00 0.14 0.14 100 1015.0
20260504005638 59 341 4.0 9.0 0.00 0.14 0.14 100 1015.0
20260504005138 60 359 4.0 7.0 0.00 0.14 0.14 100 1015.0
20260504004638 61 8 4.0 9.0 0.00 0.14 0.14 100 1015.0
20260504004023 61 13 3.0 10.0 0.00 0.14 0.14 100 1015.0
20260504003638 61 8 4.0 7.0 0.00 0.14 0.14 100 1016.0
20260504003138 60 348 3.0 9.0 0.00 0.14 0.14 100 1016.0
20260504002523 59 324 3.0 7.0 0.00 0.14 0.14 100 1016.0
20260504002022 57 317 2.0 6.0 0.00 0.14 0.14 100 1016.0
20260504001523 58 316 1.0 4.0 0.00 0.14 0.14 100 1016.0
20260504001022 58 321 1.0 3.0 0.00 0.14 0.14 100 1016.0
20260504000523 57 329 2.0 6.0 0.00 0.14 0.14 100 1016.0
20260504000023 57 332 3.0 6.0 0.00 0.14 0.14 100 1016.0
20260503235523 57 352 4.0 7.0 0.00 0.14 0.14 100 1016.0
20260503235023 56 13 4.0 8.0 0.00 0.14 0.14 100 1015.0
20260503234523 56 23 4.0 7.0 0.00 0.14 0.14 100 1015.0
20260503234137 55 22 4.0 8.0 0.00 0.14 0.14 100 1015.0
20260503233638 55 16 4.0 7.0 0.00 0.14 0.14 100 1016.0
20260503233023 55 24 5.0 8.0 0.00 0.14 0.14 100 1016.0
20260503232523 54 33 5.0 8.0 0.00 0.14 0.14 100 1016.0
20260503232023 55 34 4.0 7.0 0.00 0.14 0.14 100 1016.0
20260503231522 54 31 3.0 6.0 0.00 0.14 0.14 100 1016.0
20260503231022 54 21 3.0 6.0 0.00 0.14 0.14 100 1016.0
20260503230522 54 15 1.0 3.0 0.00 0.14 0.14 100 1016.0
20260503230138 54 4 1.0 4.0 0.00 0.14 0.14 100 1016.0
20260503225523 54 353 2.0 5.0 0.00 0.14 0.14 100 1016.0
20260503225023 54 356 2.0 5.0 0.00 0.14 0.14 100 1015.0
20260503224637 54 355 2.0 5.0 0.00 0.14 0.14 100 1015.0
20260503224022 53 352 3.0 6.0 0.00 0.14 0.14 100 1015.0
20260503223522 53 351 3.0 7.0 0.00 0.14 0.14 100 1015.0
20260503223023 53 340 2.0 5.0 0.00 0.14 0.14 100 1015.0
20260503222638 53 335 2.0 4.0 0.00 0.14 0.14 100 1015.0
20260503222023 53 344 2.0 5.0 0.00 0.14 0.14 100 1015.0
20260503221523 53 356 3.0 5.0 0.00 0.14 0.14 100 1015.0
20260503221137 52 357 4.0 7.0 0.00 0.14 0.14 100 1015.0
20260503220637 52 353 4.0 8.0 0.00 0.14 0.14 100 1015.0
20260503220023 52 354 4.0 7.0 0.00 0.14 0.14 100 1015.0
20260503215523 52 0 4.0 9.0 0.00 0.14 0.14 100 1015.0
20260503215023 52 4 4.0 10.0 0.00 0.14 0.14 100 1015.0
20260503214523 52 3 4.0 8.0 0.00 0.14 0.14 100 1015.0
20260503214137 51 1 4.0 7.0 0.00 0.14 0.14 100 1015.0
20260503213522 51 0 4.0 7.0 0.00 0.14 0.14 100 1015.0
20260503213023 51 357 3.0 5.0 0.00 0.14 0.14 100 1015.0
20260503212523 51 351 3.0 5.0 0.00 0.14 0.14 100 1015.0
20260503212023 51 353 3.0 5.0 0.00 0.14 0.14 100 1015.0
20260503211637 51 352 3.0 7.0 0.00 0.14 0.14 100 1015.0
20260503211138 51 354 3.0 7.0 0.00 0.14 0.14 100 1015.0
20260503210522 50 0 4.0 6.0 0.00 0.14 0.14 100 1015.0
20260503210024 50 358 4.0 8.0 0.00 0.14 0.14 100 1015.0
20260503205523 50 358 4.0 8.0 0.00 0.14 0.14 100 1015.0
20260503205022 50 0 3.0 9.0 0.00 0.14 0.14 100 1014.0
20260503204638 50 10 3.0 5.0 0.00 0.14 0.14 100 1014.0
20260503204023 49 20 3.0 4.0 0.00 0.14 0.14 100 1014.0
20260503203523 48 17 2.0 4.0 0.00 0.14 0.14 100 1014.0
20260503203023 48 4 2.0 4.0 0.00 0.14 0.14 100 1014.0
20260503202522 48 357 2.0 4.0 0.00 0.14 0.14 100 1014.0
20260503202137 48 356 2.0 3.0 0.00 0.14 0.14 100 1014.0
20260503201524 48 355 2.0 4.0 0.00 0.14 0.14 100 1014.0
20260503201023 48 7 2.0 4.0 0.00 0.14 0.14 100 1014.0
20260503200637 49 46 1.0 3.0 0.00 0.14 0.14 100 1014.0
20260503200023 49 48 2.0 3.0 0.00 0.14 0.14 100 1014.0
20260503195522 49 23 3.0 5.0 0.00 0.14 0.14 100 1014.0
20260503195023 49 15 2.0 4.0 0.00 0.14 0.14 100 1014.0
20260503194638 49 16 2.0 5.0 0.00 0.14 0.14 100 1014.0
20260503194023 50 21 1.0 2.0 0.00 0.14 0.14 100 1014.0
20260503193523 50 23 1.0 2.0 0.00 0.14 0.14 100 1014.0
20260503193023 50 28 0.0 1.0 0.00 0.14 0.14 100 1014.0
20260503192522 50 16 0.0 1.0 0.00 0.14 0.14 100 1014.0
20260503192137 50 351 0.0 2.0 0.00 0.14 0.14 100 1014.0
20260503191523 50 343 0.0 1.0 0.00 0.14 0.14 100 1014.0
20260503191023 50 350 0.0 1.0 0.00 0.14 0.14 100 1014.0
20260503190638 50 16 0.0 1.0 0.00 0.14 0.14 100 1014.0
20260503190023 50 30 0.0 2.0 0.00 0.14 0.14 100 1014.0
20260503185522 50 27 0.0 1.0 0.00 0.14 0.14 100 1014.0
20260503185022 50 48 0.0 1.0 0.00 0.14 0.14 100 1014.0
20260503184638 50 100 0.0 1.0 0.00 0.14 0.14 100 1014.0
20260503184138 50 135 0.0 1.0 0.00 0.14 0.14 100 1014.0
20260503183523 50 148 0.0 2.0 0.00 0.14 0.14 100 1014.0
20260503183022 50 145 0.0 2.0 0.00 0.14 0.14 100 1014.0
20260503182637 50 110 0.0 2.0 0.00 0.14 0.14 100 1014.0
20260503182022 51 27 0.0 2.0 0.00 0.14 0.14 100 1014.0
20260503181523 51 14 0.0 0.0 0.00 0.14 0.14 100 1014.0
20260503181023 51 356 0.0 0.0 0.00 0.14 0.14 100 1014.0
20260503180522 51 287 0.0 1.0 0.00 0.14 0.14 100 1014.0
20260503180023 51 266 0.0 4.0 0.00 0.14 0.14 100 1014.0
20260503175522 51 307 0.0 2.0 0.00 0.14 0.14 100 1014.0
20260503175022 51 344 1.0 3.0 0.00 0.14 0.14 100 1014.0
20260503174523 51 4 2.0 7.0 0.00 0.14 0.14 100 1014.0
20260503174023 51 352 3.0 7.0 0.00 0.14 0.14 100 1014.0
20260503173522 51 322 3.0 7.0 0.00 0.14 0.14 100 1014.0
20260503173023 51 264 2.0 4.0 0.00 0.14 0.14 100 1014.0
20260503172522 51 58 3.0 5.0 0.00 0.14 0.14 100 1014.0
20260503172022 51 30 5.0 7.0 0.00 0.14 0.14 100 1014.0
20260503171524 51 25 6.0 12.0 0.00 0.13 0.13 100 1014.0
20260503171023 51 16 6.0 10.0 0.00 0.12 0.12 100 1014.0
20260503170523 51 4 5.0 10.0 0.00 0.11 0.11 100 1014.0
20260503150522 52 175 2.0 3.0 0.00 0.05 0.05 100 1014.0
20260503131022 56 272 3.0 7.0 0.00 1.00 1.00 100 1015.0
20260503130522 57 291 5.0 11.0 0.00 1.00 1.00 100 1015.0
20260503130138 57 288 5.0 11.0 0.00 0.99 0.99 100 1015.0
20260503110523 58 10 4.0 7.0 0.00 0.66 0.66 100 1015.0
20260503081522 59 311 16.0 35.0 0.00 0.41 0.41 100 1015.0
20260503081137 59 314 19.0 43.0 0.00 0.40 0.40 100 1015.0
20260503080523 60 332 15.0 47.0 0.00 0.37 0.37 100 1014.0
20260503072522 65 350 10.0 19.0 0.00 0.11 0.11 100 1013.0
20260503072022 65 350 10.0 22.0 0.00 0.11 0.11 100 1013.0
20260503071523 64 348 9.0 19.0 0.00 0.11 0.11 100 1013.0
20260503071024 64 350 9.0 17.0 0.00 0.11 0.11 100 1013.0
20260503070523 64 351 8.0 16.0 0.00 0.11 0.11 100 1013.0
20260503060138 63 8 9.0 17.0 0.00 0.11 0.11 100 1013.0
20260503054523 63 1 6.0 19.0 0.00 0.11 0.11 100 1013.0
20260503054023 64 5 6.0 15.0 0.00 0.10 0.10 100 1013.0
20260503053522 64 8 7.0 17.0 0.00 0.09 0.09 100 1014.0
20260503053023 64 5 6.0 13.0 0.00 0.09 0.09 100 1014.0
20260503052523 64 4 6.0 16.0 0.00 0.09 0.09 100 1014.0
20260503052023 65 10 7.0 15.0 0.00 0.08 0.08 100 1014.0
20260503051524 65 11 8.0 14.0 0.00 0.08 0.08 100 1014.0